Regional Weather Roundup
Issued by NWS Cleveland, OH

Home | Current Version | Previous Version | Graphics & Text | Print | Product List | Glossary On
Versions: 1 2 3 4 5 6 7 8 9 10 11 12 13 14 15 16 17 18 19 20 21 22 23 24 25 26 27 28 29 30 31 32 33 34 35 36 37 38 39 40 41 42 43 44 45 46 47 48 49 50
000
ASUS41 KCLE 191910
RWRCLE
OHIO REGIONAL WEATHER ROUNDUP
NATIONAL WEATHER SERVICE WILMINGTON, OH
300 PM EDT SUN APR 19 2015

NOTE: "FAIR" INDICATES FEW OR NO CLOUDS BELOW 12,000 FEET WITH NO
SIGNIFICANT WEATHER AND/OR OBSTRUCTIONS TO VISIBILITY.

OHZ001>008-015>018-024>027-034-035-043-044-192000-
   NORTHWEST OHIO

CITY           SKY/WX    TMP DP  RH WIND       PRES   REMARKS
DEFIANCE       CLOUDY    60  40  47 E13       29.73F
FINDLAY        LGT RAIN  65  48  54 E8        29.71F
TOLEDO EXPRESS CLOUDY    52  40  63 NE18G25   29.77F
TOLEDO EXEC    CLOUDY    50  39  66 NE20G28   29.79F
LIMA           LGT RAIN  68  58  70 SE21G29   29.70F
$$

OHZ009>014-019>023-028>033-038-089-192000-
   NORTHEAST OHIO

CITY           SKY/WX    TMP DP  RH WIND       PRES   REMARKS
CLE-HOPKINS    CLOUDY    74  42  31 SE20G25   29.81F
CLE-LAKEFRONT  CLOUDY    73  40  30 SE15G25   29.79F
CUY CO. ARPT   CLOUDY    75  45  33 SE17G23   29.83F
LORAIN-ELYRIA  CLOUDY    72  45  37 SE20      29.78F
ASHTABULA      CLOUDY    72  35  25 SE16G29   29.87F
AKRON-CANTON   CLOUDY    73  40  30 SE18G24   29.82F
WOOSTER        CLOUDY    71  45  39 SE16G32   29.79F
MANSFIELD      CLOUDY    72  44  36 SE21G30   29.76F
YOUNGSTOWN     CLOUDY    73  37  27 SE22G30   29.86F
$$

OHZ042-051>053-060>062-070>072-077>081-192000-
  SOUTHWEST OHIO

CITY           SKY/WX    TMP DP  RH WIND       PRES   REMARKS
CINC-COVINGTON LGT RAIN  64  61  90 SE17      29.60F FOG
CINC-LUNKEN    LGT RAIN  64  62  93 E10G22    29.62F FOG
HAMILTON       LGT RAIN  66  62  87 SE8G21    29.63F FOG
DAYTON         LGT RAIN  64  61  90 E23G29    29.67F FOG
WRIGHT-PAT AFB LGT RAIN  64  63  97 E18       29.67F
DAYTON GENERAL LGT RAIN  64  61  90 E16G30    29.64F
WILMINGTON     LGT RAIN  63  59  87 SE22G29   29.67F
$$

OHZ036-037-039>041-045>050-054>059-063>069-073>076-082>088-192000-
  CENTRAL AND SOUTHEAST OHIO

CITY           SKY/WX    TMP DP  RH WIND       PRES   REMARKS
COLUMBUS       LGT RAIN  65  54  67 SE13      29.76F
OSU AIRPORT    LGT RAIN  65  53  65 SE16G24   29.74F
BOLTON FIELD   RAIN      64  55  72 SE9       29.75F
RICKENBACK AFB LGT RAIN  64  53  67 SE13G20   29.75S
NEWARK         LGT RAIN  66  52  60 SE20G30   29.77S
MARION         CLOUDY    71  47  42 S17G31    29.75F
LANCASTER      LGT RAIN  65  52  62 SE18      29.77F
ZANESVILLE     LGT RAIN  69  47  45 S21G31    29.80S
NEW PHILLY     CLOUDY    74  41  30 SE18G28   29.81F
$$



USA.gov is the U.S. government's official web portal to all federal, state and local government web resources and services.